Date String (YYYY-MM-DD hh:mm:ss) UTC,Instrument flags,Ambient pressure (hPa),Sample flow (lpm),Bypass flow (lpm),Sample temperature (°C),Ambient temperature (°C),ASC tube jacket temperature (°C),LED temperature (°C),Box temperature (°C),Sample RH (%),Span deviation,Mass concentration (μg/m³),Mass concentration (μg/m³),Mass concentration (μg/m³)
DateTimeUTC,F1_M11,P_M11,Q1_M11,Q2_M11,T1_M11,T2_M11,T3_M11,T4_M11,T5_M11,U1_M11,ZSPAN_M11,X2_M11,X0_M11,X1_M11
2022-05-31 23:00:00,,0829.3,5.02,0.00,27.8,26.8,00.0,36.7,29.7,22.8,0000.0,0002.85,0004.62,0002.32
2022-05-31 23:01:00,,0829.4,5.00,0.00,27.8,26.8,00.0,36.7,29.7,22.9,0000.0,0002.93,0004.81,0002.34
2022-05-31 23:02:00,,0829.3,4.98,0.00,27.8,26.9,00.0,36.7,29.7,23.0,0000.0,0002.98,0004.90,0002.38
2022-05-31 23:03:00,,0829.4,5.00,0.00,27.8,26.9,00.0,36.7,29.8,23.0,0000.0,0002.98,0004.93,0002.40
2022-05-31 23:04:00,,0829.4,5.01,0.00,27.8,26.9,00.0,36.7,29.8,22.9,0000.0,0003.03,0005.00,0002.41
2022-05-31 23:05:00,,0829.4,5.00,0.00,27.8,26.9,00.0,36.7,29.8,22.9,0000.0,0003.06,0004.76,0002.43
2022-05-31 23:06:00,,0829.5,5.00,0.00,27.8,26.9,00.0,36.7,29.8,22.9,0000.0,0003.06,0004.18,0002.46
2022-05-31 23:07:00,,0829.4,5.03,0.00,27.8,26.9,00.0,36.8,29.8,23.0,0000.0,0003.08,0004.14,0002.48
2022-05-31 23:08:00,,0829.5,5.00,0.00,27.8,26.9,00.0,36.7,29.8,22.9,0000.0,0003.12,0004.28,0002.50
2022-05-31 23:09:00,,0829.5,5.00,0.00,27.9,26.9,00.0,36.8,29.8,22.8,0000.0,0003.17,0004.43,0002.53
2022-05-31 23:10:00,,0829.6,5.01,0.00,27.8,26.9,00.0,36.8,29.8,22.7,0000.0,0003.19,0004.56,0002.55
2022-05-31 23:11:00,,0829.5,5.00,0.00,27.8,26.9,00.0,36.8,29.8,22.5,0000.0,0003.21,0004.64,0002.56
2022-05-31 23:12:00,,0829.6,4.99,0.00,27.9,26.9,00.0,36.8,29.8,22.6,0000.0,0003.21,0004.70,0002.58
2022-05-31 23:13:00,,0829.5,5.00,0.00,27.9,26.9,00.0,36.8,29.8,22.6,0000.0,0003.22,0004.73,0002.59
2022-05-31 23:14:00,,0829.5,5.00,0.00,27.9,26.9,00.0,36.8,29.8,22.7,0000.0,0003.21,0004.72,0002.60
2022-05-31 23:15:00,,0829.5,5.00,0.00,27.9,26.9,00.0,36.8,29.8,22.8,0000.0,0003.19,0004.83,0002.61
2022-05-31 23:16:00,,0829.4,5.01,0.00,27.9,26.9,00.0,36.8,29.8,22.8,0000.0,0003.21,0005.16,0002.62
2022-05-31 23:17:00,,0829.5,5.00,0.00,27.9,26.9,00.0,36.8,29.8,23.1,0000.0,0003.23,0005.25,0002.63
2022-05-31 23:18:00,,0829.5,5.00,0.00,27.9,26.9,00.0,36.8,29.8,23.1,0000.0,0003.25,0005.32,0002.64
2022-05-31 23:19:00,,0829.5,5.01,0.00,27.9,26.9,00.0,36.8,29.8,23.0,0000.0,0003.25,0005.31,0002.64
2022-05-31 23:20:00,,0829.5,4.99,0.00,27.9,26.9,00.0,36.8,29.8,23.2,0000.0,0003.21,0005.16,0002.64
2022-05-31 23:21:00,,0829.5,5.00,0.00,27.9,26.9,00.0,36.8,29.8,23.4,0000.0,0003.22,0005.08,0002.65
2022-05-31 23:22:00,,0829.5,5.00,0.00,27.9,26.9,00.0,36.8,29.8,23.7,0000.0,0003.25,0005.28,0002.68
2022-05-31 23:23:00,,0829.5,5.00,0.00,27.9,26.9,00.0,36.8,29.8,23.9,0000.0,0003.25,0005.26,0002.70
2022-05-31 23:24:00,,0829.5,5.00,0.00,27.9,26.9,00.0,36.8,29.8,23.9,0000.0,0003.26,0005.45,0002.72
2022-05-31 23:25:00,,0829.5,5.01,0.00,27.9,26.9,00.0,36.8,29.8,23.6,0000.0,0003.25,0005.36,0002.71
2022-05-31 23:26:00,,0829.5,4.99,0.00,27.9,26.9,00.0,36.8,29.8,23.3,0000.0,0003.25,0005.57,0002.71
2022-05-31 23:27:00,,0829.5,5.00,0.00,27.9,26.9,00.0,36.8,29.8,23.1,0000.0,0003.26,0005.39,0002.71
2022-05-31 23:28:00,,0829.5,5.00,0.00,27.9,26.9,00.0,36.8,29.8,23.3,0000.0,0003.26,0005.39,0002.72
2022-05-31 23:29:00,,0829.5,5.00,0.00,27.9,26.9,00.0,36.8,29.8,23.0,0000.0,0003.26,0005.39,0002.72
2022-05-31 23:30:00,,0829.5,5.02,0.00,27.9,26.9,00.0,36.8,29.8,22.8,0000.0,0003.26,0005.43,0002.70
2022-05-31 23:31:00,,0829.6,5.00,0.00,27.9,26.9,00.0,36.8,29.8,22.6,0000.0,0003.26,0005.60,0002.70
2022-05-31 23:32:00,,0829.6,4.99,0.00,27.9,26.9,00.0,36.8,29.8,22.3,0000.0,0003.26,0005.87,0002.68
2022-05-31 23:33:00,,0829.5,5.01,0.00,27.9,26.9,00.0,36.8,29.8,22.1,0000.0,0003.24,0005.81,0002.63
2022-05-31 23:34:00,,0829.6,5.01,0.00,27.9,26.9,00.0,36.8,29.8,22.1,0000.0,0003.25,0005.90,0002.60
2022-05-31 23:35:00,,0829.6,5.00,0.00,27.9,26.9,00.0,36.8,29.8,22.1,0000.0,0003.23,0005.70,0002.56
2022-05-31 23:36:00,,0829.5,4.99,0.00,27.9,26.9,00.0,36.8,29.8,22.0,0000.0,0003.24,0005.74,0002.54
2022-05-31 23:37:00,,0829.5,5.00,0.00,27.9,26.9,00.0,36.8,29.8,22.1,0000.0,0003.24,0005.62,0002.51
2022-05-31 23:38:00,,0829.5,5.00,0.00,27.9,26.9,00.0,36.8,29.8,22.3,0000.0,0003.20,0005.32,0002.48
2022-05-31 23:39:00,,0829.6,5.00,0.00,27.9,26.9,00.0,36.8,29.8,22.5,0000.0,0003.19,0007.23,0002.45
2022-05-31 23:40:00,,0829.6,4.99,0.00,27.9,26.9,00.0,36.8,29.8,22.3,0000.0,0003.15,0007.53,0002.41
2022-05-31 23:41:00,,0829.6,5.00,0.00,28.0,26.9,00.0,36.8,29.9,22.1,0000.0,0003.13,0007.52,0002.39
2022-05-31 23:42:00,,0829.6,5.01,0.00,28.0,26.9,00.0,36.8,29.9,22.1,0000.0,0003.12,0007.46,0002.37
2022-05-31 23:43:00,,0829.5,5.00,0.00,28.0,26.9,00.0,36.8,29.9,22.3,0000.0,0003.05,0007.14,0002.35
2022-05-31 23:44:00,,0829.6,5.00,0.00,28.0,26.9,00.0,36.8,29.9,22.1,0000.0,0003.02,0007.03,0002.35
2022-05-31 23:45:00,,0829.6,4.99,0.00,28.0,26.9,00.0,36.8,29.9,22.2,0000.0,0002.95,0006.77,0002.37
2022-05-31 23:46:00,,0829.6,5.00,0.00,28.0,27.0,00.0,36.9,29.9,22.5,0000.0,0002.95,0006.70,0002.39
2022-05-31 23:47:00,,0829.6,5.00,0.00,28.0,27.0,00.0,36.9,29.9,22.7,0000.0,0002.94,0006.61,0002.41
2022-05-31 23:48:00,,0829.6,5.00,0.00,28.0,27.0,00.0,36.9,29.9,22.9,0000.0,0002.94,0006.44,0002.44
2022-05-31 23:49:00,,0829.6,4.99,0.00,28.0,27.0,00.0,36.9,29.9,23.2,0000.0,0002.96,0006.48,0002.47
2022-05-31 23:50:00,,0829.7,4.99,0.00,28.0,27.0,00.0,36.9,29.9,23.6,0000.0,0002.92,0004.62,0002.48
2022-05-31 23:51:00,,0829.7,5.00,0.00,28.0,27.0,00.0,36.9,29.9,24.7,0000.0,0002.94,0004.02,0002.50
2022-05-31 23:52:00,,0829.7,4.99,0.00,28.0,27.0,00.0,36.9,29.9,23.9,0000.0,0002.99,0004.11,0002.53
2022-05-31 23:53:00,,0829.7,5.00,0.00,28.0,27.0,00.0,36.9,29.9,23.2,0000.0,0003.04,0004.33,0002.54
2022-05-31 23:54:00,,0829.7,4.99,0.00,28.0,27.0,00.0,36.9,29.9,22.6,0000.0,0003.07,0004.45,0002.55
2022-05-31 23:55:00,,0829.6,5.00,0.00,28.0,27.0,00.0,36.9,29.9,22.3,0000.0,0003.02,0004.35,0002.52
2022-05-31 23:56:00,,0829.7,5.01,0.00,28.0,26.9,00.0,36.9,29.9,22.6,0000.0,0003.06,0004.49,0002.51
2022-05-31 23:57:00,,0829.7,5.00,0.00,28.0,26.9,00.0,36.9,29.9,22.8,0000.0,0003.07,0004.56,0002.48
2022-05-31 23:58:00,,0829.8,5.01,0.00,28.0,26.9,00.0,36.9,29.9,22.7,0000.0,0003.09,0004.67,0002.48
2022-05-31 23:59:00,,0829.7,4.99,0.00,28.0,26.9,00.0,36.9,29.9,22.8,0000.0,0003.13,0004.92,0002.48
